FW8114 Weather Reports


time (UTC)temp
F
wind
direction
speed
knots
gust
knots
rain 1hr
in
rain 24hr
in
rain mn
in
humidity
%
barometer
mb
20260504175207 70 213 3.5 4.3 0.00 0.00 0.00 37 1011.7
20260504174705 70 187 2.6 4.3 0.00 0.00 0.00 37 1012.0
20260504174202 70 223 4.3 6.1 0.00 0.00 0.00 37 1011.8
20260504173658 70 310 3.5 4.3 0.00 0.00 0.00 39 1012.1
20260504173156 70 322 4.3 7.0 0.00 0.00 0.00 39 1012.0
20260504172652 69 240 2.6 8.7 0.00 0.00 0.00 40 1012.0
20260504172149 69 242 5.2 6.1 0.00 0.00 0.00 39 1012.1
20260504171645 70 256 2.6 2.6 0.00 0.00 0.00 38 1012.2
20260504171143 69 249 4.3 5.2 0.00 0.00 0.00 39 1012.2
20260504170639 69 250 7.8 9.6 0.00 0.00 0.00 37 1012.3
20260504170136 68 203 3.5 5.2 0.00 0.00 0.00 42 1012.3
20260504151022 66 216 5.2 8.7 0.00 0.00 0.00 42 1013.7
20260504150519 65 246 7.8 11.3 0.00 0.00 0.00 43 1013.6
20260504140945 63 223 0.9 1.7 0.00 0.00 0.00 50 1013.9
20260504140442 63 211 2.6 4.3 0.00 0.00 0.00 49 1014.2
20260504130406 57 257 4.3 5.2 0.00 0.00 0.00 59 1015.0
20260504110248 37 233 0.0 0.0 0.00 0.00 0.00 93 1015.6
20260504100211 35 234 0.0 0.0 0.00 0.00 0.00 93 1015.4
20260504090134 36 225 0.0 0.0 0.00 0.00 0.00 92 1015.1
20260504081604 36 232 0.0 0.0 0.00 0.00 0.00 92 1015.0
20260504081100 37 226 0.0 0.0 0.00 0.00 0.00 92 1014.9
20260504080557 37 225 0.0 0.0 0.00 0.00 0.00 92 1014.8
20260504050409 39 240 0.0 0.0 0.00 0.00 0.00 84 1014.5
20260504045906 39 242 0.0 0.0 0.00 0.00 0.00 83 1014.5
20260504045402 39 230 0.0 0.0 0.00 0.00 0.00 83 1014.3
20260504044859 39 231 0.0 0.0 0.00 0.00 0.00 82 1014.4
20260504044356 40 220 0.0 0.0 0.00 0.00 0.00 81 1014.2
20260504043854 40 246 0.0 0.0 0.00 0.00 0.00 80 1014.5
20260504043350 40 228 0.0 0.0 0.00 0.00 0.00 79 1014.3
20260504042848 41 230 0.0 0.0 0.00 0.00 0.00 78 1014.4
20260504042344 41 226 0.0 0.0 0.00 0.00 0.00 78 1014.4
20260504041840 41 224 0.0 0.0 0.00 0.00 0.00 79 1014.2
20260504041336 41 224 0.0 0.0 0.00 0.00 0.00 79 1014.5
20260504040832 41 228 0.0 0.0 0.00 0.00 0.00 79 1014.2
20260504040331 41 227 0.0 0.0 0.00 0.00 0.00 78 1014.1
20260504035826 42 229 0.0 0.0 0.00 0.00 0.00 77 1014.2
20260504035324 42 231 0.0 0.0 0.00 0.00 0.00 76 1013.8
20260504034820 42 224 0.0 0.0 0.00 0.00 0.00 76 1013.8
20260504034318 42 224 0.0 0.0 0.00 0.00 0.00 75 1013.9
20260504033815 42 215 0.0 0.0 0.00 0.00 0.00 75 1013.9
20260504033313 42 200 0.0 0.0 0.00 0.00 0.00 78 1013.5
20260504032809 42 223 0.0 0.0 0.00 0.00 0.00 77 1013.7
20260504032307 42 225 0.0 0.0 0.00 0.00 0.00 79 1013.8
20260504031803 42 224 0.0 0.0 0.00 0.00 0.00 78 1013.8
20260504031301 42 227 0.0 0.0 0.00 0.00 0.00 78 1013.7
20260504030757 42 223 0.0 0.0 0.00 0.00 0.00 78 1013.7
20260504030254 42 227 0.0 0.0 0.00 0.00 0.00 78 1013.6
20260504025750 42 221 0.0 0.0 0.00 0.00 0.00 77 1013.6
20260504025247 42 230 0.0 0.0 0.00 0.00 0.00 74 1013.8
20260504024744 43 228 0.0 0.0 0.00 0.00 0.00 74 1013.8
20260504024241 43 227 0.0 0.0 0.00 0.00 0.00 73 1013.7
20260504023738 43 226 0.0 0.0 0.00 0.00 0.00 73 1013.8
20260504023234 43 212 0.0 0.0 0.00 0.00 0.00 74 1013.8
20260504022730 44 230 0.0 0.0 0.00 0.00 0.00 72 1013.6
20260504022226 44 224 0.0 0.0 0.00 0.00 0.00 72 1013.7
20260504021723 44 226 0.0 0.0 0.00 0.00 0.00 73 1013.7
20260504021221 44 225 0.0 0.0 0.00 0.00 0.00 72 1013.9
20260504020717 44 227 0.0 0.0 0.00 0.00 0.00 71 1013.7
20260504020214 44 223 0.0 0.0 0.00 0.00 0.00 71 1013.7
20260504015710 45 216 0.0 0.0 0.00 0.00 0.00 74 1013.6
20260504015207 45 221 0.0 0.0 0.00 0.00 0.00 72 1013.7
20260504014702 45 228 0.0 0.0 0.00 0.00 0.00 69 1013.6
20260504014159 46 232 0.0 0.0 0.00 0.00 0.00 67 1013.5
20260504013657 46 226 0.0 0.0 0.00 0.00 0.00 66 1013.4
20260504013154 46 218 0.0 0.0 0.00 0.00 0.00 66 1013.6
20260504012651 46 225 0.0 0.0 0.00 0.00 0.00 67 1013.3
20260504012149 46 226 0.0 0.0 0.00 0.00 0.00 69 1013.2
20260504011645 46 228 0.0 0.0 0.00 0.00 0.00 69 1013.3
20260504011142 46 227 0.0 0.0 0.00 0.00 0.00 68 1013.1
20260504010638 46 221 0.0 0.0 0.00 0.00 0.00 66 1013.1
20260504010134 47 233 0.0 0.0 0.00 0.00 0.00 64 1013.0
20260504005631 47 228 0.0 0.0 0.00 0.00 0.00 64 1013.0
20260504005128 48 225 0.0 0.0 0.00 0.00 0.00 64 1012.9
20260504004626 48 226 0.0 0.0 0.00 0.00 0.00 63 1012.8
20260504004123 49 224 0.0 0.0 0.00 0.00 0.00 64 1013.0
20260504003619 49 226 0.0 0.0 0.00 0.00 0.00 59 1012.9
20260504003115 50 228 0.0 0.0 0.00 0.00 0.00 56 1012.6
20260504002612 51 226 0.0 0.0 0.00 0.00 0.00 60 1012.4
20260504002110 52 225 0.0 0.0 0.00 0.00 0.00 52 1012.7
20260504001608 53 227 0.0 0.0 0.00 0.00 0.00 48 1012.5
20260504001103 53 228 0.0 0.0 0.00 0.00 0.00 44 1012.3
20260504000601 55 230 0.0 0.0 0.00 0.00 0.00 40 1012.2
20260504000058 56 228 0.0 0.0 0.00 0.00 0.00 39 1012.3
20260503235556 57 241 0.0 0.0 0.00 0.00 0.00 37 1012.1
20260503235053 57 233 0.0 0.0 0.00 0.00 0.00 36 1012.4
20260503234551 58 242 0.0 0.0 0.00 0.00 0.00 36 1012.1
20260503234049 58 244 0.0 0.0 0.00 0.00 0.00 34 1012.0
20260503233545 59 317 2.6 2.6 0.00 0.00 0.00 34 1012.1
20260503233041 59 297 2.6 4.3 0.00 0.00 0.00 34 1012.1
20260503232538 59 340 3.5 5.2 0.00 0.00 0.00 33 1011.8
20260503232036 60 302 2.6 2.6 0.00 0.00 0.00 34 1012.0
20260503231533 60 250 2.6 4.3 0.00 0.00 0.00 33 1011.8
20260503231030 60 233 0.0 0.9 0.00 0.00 0.00 33 1011.7
20260503230526 61 266 0.0 0.9 0.00 0.00 0.00 32 1011.7
20260503230024 61 246 2.6 5.2 0.00 0.00 0.00 32 1011.9
20260503225521 61 298 3.5 5.2 0.00 0.00 0.00 32 1011.7
20260503225016 61 317 5.2 7.8 0.00 0.00 0.00 31 1011.7
20260503224514 61 297 4.3 6.1 0.00 0.00 0.00 30 1011.6
20260503224011 61 317 1.7 1.7 0.00 0.00 0.00 32 1011.7
20260503223509 61 307 3.5 5.2 0.00 0.00 0.00 31 1011.6
20260503223004 60 245 3.5 4.3 0.00 0.00 0.00 32 1011.8
20260503222503 61 254 3.5 4.3 0.00 0.00 0.00 30 1011.7
20260503222000 61 229 0.9 0.9 0.00 0.00 0.00 32 1011.7
20260503221458 61 317 2.6 2.6 0.00 0.00 0.00 31 1011.7
20260503220955 61 281 2.6 2.6 0.00 0.00 0.00 31 1011.6
20260503220452 61 238 3.5 4.3 0.00 0.00 0.00 31 1011.7
20260503215948 61 301 2.6 2.6 0.00 0.00 0.00 32 1011.5
20260503215445 61 233 2.6 5.2 0.00 0.00 0.00 33 1011.6
20260503214943 61 290 1.7 4.3 0.00 0.00 0.00 31 1011.7
20260503214441 60 238 4.3 6.1 0.00 0.00 0.00 30 1011.7
20260503213938 60 315 2.6 4.3 0.00 0.00 0.00 30 1011.6
20260503213436 60 280 7.0 9.6 0.00 0.00 0.00 31 1011.6
20260503212932 61 335 5.2 7.8 0.00 0.00 0.00 32 1011.5
20260503212430 60 325 8.7 13.0 0.00 0.00 0.00 30 1011.5
20260503211927 61 281 2.6 2.6 0.00 0.00 0.00 33 1011.5
20260503211424 60 262 4.3 6.1 0.00 0.00 0.00 32 1011.6
20260503210919 60 318 0.9 4.3 0.00 0.00 0.00 33 1011.8
20260503210416 60 324 3.5 5.2 0.00 0.00 0.00 32 1011.6
20260503205910 59 293 6.1 7.8 0.00 0.00 0.00 30 1011.6
20260503205408 60 226 5.2 6.1 0.00 0.00 0.00 32 1011.6
20260503204904 60 8 3.5 4.3 0.00 0.00 0.00 32 1011.7
20260503204401 60 309 7.8 9.6 0.00 0.00 0.00 31 1011.6
20260503203859 59 264 8.7 11.3 0.00 0.00 0.00 31 1011.6
20260503203356 60 323 6.1 9.6 0.00 0.00 0.00 32 1011.6
20260503202852 59 251 6.1 8.7 0.00 0.00 0.00 32 1011.8
20260503202351 59 302 5.2 7.8 0.00 0.00 0.00 33 1011.8
20260503201849 59 335 9.6 11.3 0.00 0.00 0.00 31 1011.8
20260503201345 59 331 6.1 7.0 0.00 0.00 0.00 30 1011.8
20260503200843 59 282 2.6 4.3 0.00 0.00 0.00 33 1011.8
20260503200338 58 315 8.7 13.9 0.00 0.00 0.00 33 1011.9
20260503195836 58 1 7.8 11.3 0.00 0.00 0.00 32 1012.0
20260503195332 59 350 7.0 9.6 0.00 0.00 0.00 31 1012.0
20260503194830 60 294 9.6 13.0 0.00 0.00 0.00 32 1012.2
20260503194326 60 238 0.9 1.7 0.00 0.00 0.00 32 1011.9
20260503193822 60 216 2.6 4.3 0.00 0.00 0.00 34 1012.0
20260503193318 59 338 3.5 4.3 0.00 0.00 0.00 32 1012.0
20260503192814 59 233 6.1 8.7 0.00 0.00 0.00 33 1012.3
20260503192310 59 232 7.0 7.8 0.00 0.00 0.00 33 1012.2
20260503191806 58 332 10.4 12.2 0.00 0.00 0.00 31 1012.2
20260503191303 58 354 2.6 5.2 0.00 0.00 0.00 36 1012.2
20260503190800 58 285 8.7 11.3 0.00 0.00 0.00 31 1012.2
20260503190257 58 328 9.6 13.0 0.00 0.00 0.00 34 1012.3
20260503185754 58 317 8.7 11.3 0.00 0.00 0.00 33 1012.3
20260503185250 58 323 7.8 11.3 0.00 0.00 0.00 35 1012.4
20260503184744 57 290 1.7 2.6 0.00 0.00 0.00 34 1012.7
20260503184241 58 245 5.2 7.0 0.00 0.00 0.00 37 1012.3
20260503183737 58 252 7.8 13.0 0.00 0.00 0.00 34 1012.5
20260503183235 58 318 12.2 17.4 0.00 0.00 0.00 33 1012.7
20260503182732 58 322 14.8 18.2 0.00 0.00 0.00 36 1012.7
20260503182231 57 300 4.3 6.1 0.00 0.00 0.00 37 1012.7
20260503181728 56 266 7.0 8.7 0.00 0.00 0.00 33 1012.7
20260503181225 57 320 9.6 13.0 0.00 0.00 0.00 35 1012.5
20260503180721 56 307 5.2 7.0 0.00 0.00 0.00 36 1012.7
20260503180219 56 288 4.3 6.1 0.00 0.00 0.00 36 1012.7
20260503175715 56 341 5.2 6.1 0.00 0.00 0.00 37 1012.8